TimeAKST,TemperatureF,Dew PointF,Humidity,Sea Level PressureIn,VisibilityMPH,Wind Direction,Wind SpeedMPH,Gust SpeedMPH,PrecipitationIn,Events,Conditions,WindDirDegrees,DateUTC
12:53 AM,-2.0,-7.1,79,29.91,10.0,NE,6.9,-,N/A,,Scattered Clouds,40,2013-02-02 09:53:00
1:53 AM,3.9,-0.9,80,29.88,10.0,NE,5.8,-,N/A,,Scattered Clouds,40,2013-02-02 10:53:00
3:53 AM,1.9,-2.0,83,29.83,10.0,Calm,Calm,-,N/A,,Scattered Clouds,0,2013-02-02 12:53:00
4:53 AM,1.0,-2.9,83,29.81,10.0,NE,6.9,-,N/A,,Scattered Clouds,40,2013-02-02 13:53:00
5:53 AM,1.9,-2.9,80,29.78,10.0,NE,6.9,-,N/A,,Mostly Cloudy,40,2013-02-02 14:53:00
6:53 AM,1.0,-2.9,83,29.77,10.0,Calm,Calm,-,N/A,,Mostly Cloudy,0,2013-02-02 15:53:00
7:53 AM,9.0,3.9,80,29.74,10.0,NE,10.4,-,N/A,,Mostly Cloudy,40,2013-02-02 16:53:00
8:53 AM,10.0,5.0,80,29.73,10.0,North,5.8,-,N/A,,Mostly Cloudy,10,2013-02-02 17:53:00
9:53 AM,6.1,1.9,83,29.73,10.0,NNE,4.6,-,N/A,,Scattered Clouds,30,2013-02-02 18:53:00
10:53 AM,3.9,-0.9,80,29.73,10.0,North,3.5,-,N/A,,Scattered Clouds,10,2013-02-02 19:53:00
11:53 AM,3.9,-0.0,84,29.73,10.0,NE,3.5,-,N/A,,Scattered Clouds,50,2013-02-02 20:53:00
12:53 PM,1.9,-2.0,83,29.72,10.0,NNE,4.6,-,N/A,,Mostly Cloudy,30,2013-02-02 21:53:00
1:53 PM,9.0,3.0,77,29.70,10.0,NNE,6.9,-,N/A,,Mostly Cloudy,20,2013-02-02 22:53:00
2:53 PM,12.0,3.9,70,29.68,10.0,NNE,3.5,-,N/A,,Mostly Cloudy,20,2013-02-02 23:53:00
3:53 PM,6.1,1.0,80,29.67,10.0,NE,3.5,-,N/A,,Mostly Cloudy,40,2013-02-03 00:53:00
4:53 PM,3.9,1.0,88,29.66,10.0,Calm,Calm,-,N/A,,Scattered Clouds,0,2013-02-03 01:53:00
5:53 PM,3.0,1.0,91,29.65,10.0,Calm,Calm,-,N/A,,Scattered Clouds,0,2013-02-03 02:53:00
6:53 PM,1.9,-2.9,80,29.63,10.0,NE,8.1,-,N/A,,Scattered Clouds,50,2013-02-03 03:53:00
7:53 PM,1.0,-4.0,79,29.62,10.0,NE,6.9,-,N/A,,Scattered Clouds,40,2013-02-03 04:53:00
8:53 PM,6.1,1.0,80,29.60,10.0,NNE,8.1,-,N/A,,Scattered Clouds,30,2013-02-03 05:53:00
9:53 PM,7.0,1.9,80,29.59,10.0,NE,4.6,-,N/A,,Scattered Clouds,50,2013-02-03 06:53:00
10:53 PM,9.0,3.9,80,29.57,10.0,NE,4.6,-,N/A,,Mostly Cloudy,50,2013-02-03 07:53:00
11:53 PM,7.0,1.9,80,29.57,10.0,Calm,Calm,-,N/A,,Mostly Cloudy,0,2013-02-03 08:53:00